Location: Unspecified
(40.7945°N, 111.1337°W)
Time: 16:09:18
(UTC-06:00)

Altair - Pass Details

Date: 03 July 2019
Orbit: 1501 x 1683 km, 47.2° (Epoch: 17 July)

Event Time Altitude Azimuth Distance (km) Brightness Sun altitude
Rises 00:25:31 0° 298° (WNW) 4,775 10.7 -24.6°
Reaches altitude 10° 00:28:36 10° 295° (WNW) 3,812 10.1 -24.7°
Maximum altitude 00:38:11 65° 217° (SW) 1,776 7.6 -25.2°
Enters shadow 00:42:06 40° 153° (SSE) 2,266 7.8 -25.3°
